This is the latest recevied weather packets stored in our database for station/object DG8SBT-13. If no packets are shown the sender has not sent any weather packets the latest 10 day(s).
| Time | Temp. | Humidity | Pressure | Rain* | Wind** | Luminosity | Snow |
|---|---|---|---|---|---|---|---|
| 1777568841 | 25.56° C | 23% | 1025.7 hPa | - | - | - | - |
| 1777567052 | 25.56° C | 24% | 1025.9 hPa | - | - | - | - |
| 1777565261 | 25.56° C | 23% | 1025.8 hPa | - | - | - | - |
| 1777563469 | 25.56° C | 23% | 1025.6 hPa | - | - | - | - |
| 1777561678 | 25.56° C | 23% | 1025.6 hPa | - | - | - | - |
| 1777559888 | 25.56° C | 23% | 1025.7 hPa | - | - | - | - |
| 1777558098 | 25.56° C | 23% | 1025.9 hPa | - | - | - | - |
| 1777556305 | 25.56° C | 23% | 1026 hPa | - | - | - | - |
| 1777554516 | 25.56° C | 23% | 1026.1 hPa | - | - | - | - |
| 1777552724 | 25° C | 23% | 1026.3 hPa | - | - | - | - |
| 1777550933 | 25° C | 24% | 1026.7 hPa | - | - | - | - |
| 1777549142 | 24.44° C | 24% | 1026.8 hPa | - | - | - | - |
| 1777547350 | 24.44° C | 25% | 1027 hPa | - | - | - | - |
| 1777545559 | 23.89° C | 24% | 1027.4 hPa | - | - | - | - |
| 1777543768 | 23.33° C | 25% | 1027.6 hPa | - | - | - | - |
| 1777541977 | 22.78° C | 25% | 1027.7 hPa | - | - | - | - |
| 1777540186 | 22.22° C | 26% | 1027.8 hPa | - | - | - | - |
| 1777538396 | 21.67° C | 27% | 1027.9 hPa | - | - | - | - |
| 1777536603 | 21.11° C | 28% | 1027.9 hPa | - | - | - | - |
| 1777534812 | 20.56° C | 28% | 1027.7 hPa | - | - | - | - |
| 1777533022 | 20° C | 29% | 1027.7 hPa | - | - | - | - |
| 1777531231 | 19.44° C | 28% | 1027.8 hPa | - | - | - | - |
| 1777529440 | 18.33° C | 27% | 1027.7 hPa | - | - | - | - |
| 1777527650 | 18.89° C | 27% | 1027.7 hPa | - | - | - | - |
| 1777525860 | 18.89° C | 27% | 1027.5 hPa | - | - | - | - |
* Rain since midnight (hover to see other rain measurements)
** Current wind speed in m/s (hover to see current wind gust speed)